TimePST,TemperatureF,Dew PointF,Humidity,Sea Level PressureIn,VisibilityMPH,Wind Direction,Wind SpeedMPH,Gust SpeedMPH,PrecipitationIn,Events,Conditions,WindDirDegrees,DateUTC
12:53 AM,55.0,21.9,28,30.07,10.0,Calm,Calm,-,N/A,,Clear,0,2014-01-20 08:53:00
1:53 AM,53.1,23.0,31,30.07,10.0,Calm,Calm,-,N/A,,Clear,0,2014-01-20 09:53:00
2:53 AM,51.1,23.0,33,30.07,10.0,Calm,Calm,-,N/A,,Clear,0,2014-01-20 10:53:00
3:53 AM,50.0,24.1,36,30.06,10.0,Calm,Calm,-,N/A,,Clear,0,2014-01-20 11:53:00
4:53 AM,50.0,24.1,36,30.07,10.0,WSW,3.5,-,N/A,,Clear,240,2014-01-20 12:53:00
5:53 AM,48.0,23.0,37,30.08,10.0,Calm,Calm,-,N/A,,Clear,0,2014-01-20 13:53:00
6:53 AM,48.9,24.1,38,30.10,10.0,Calm,Calm,-,N/A,,Clear,0,2014-01-20 14:53:00
7:53 AM,52.0,24.1,34,30.10,10.0,WNW,3.5,-,N/A,,Clear,290,2014-01-20 15:53:00
8:53 AM,60.1,23.0,24,30.13,10.0,Calm,Calm,-,N/A,,Clear,0,2014-01-20 16:53:00
9:53 AM,66.0,26.1,22,30.14,10.0,Calm,Calm,-,N/A,,Clear,0,2014-01-20 17:53:00
10:53 AM,73.9,18.0,12,30.13,10.0,WSW,3.5,-,N/A,,Clear,240,2014-01-20 18:53:00
11:53 AM,78.1,14.0,9,30.09,10.0,WSW,4.6,-,N/A,,Clear,250,2014-01-20 19:53:00
12:53 PM,81.0,10.0,7,30.06,10.0,Variable,3.5,-,N/A,,Clear,0,2014-01-20 20:53:00
1:53 PM,82.9,12.0,7,30.05,10.0,South,5.8,-,N/A,,Clear,180,2014-01-20 21:53:00
2:53 PM,82.9,8.1,6,30.04,10.0,SW,3.5,-,N/A,,Clear,220,2014-01-20 22:53:00
3:53 PM,84.0,9.0,6,30.04,10.0,Calm,Calm,-,N/A,,Clear,0,2014-01-20 23:53:00
4:53 PM,80.1,30.9,17,30.06,10.0,South,3.5,-,N/A,,Clear,180,2014-01-21 00:53:00
5:53 PM,77.0,14.0,9,30.07,10.0,Calm,Calm,-,N/A,,Clear,0,2014-01-21 01:53:00
6:53 PM,68.0,28.0,22,30.10,10.0,Calm,Calm,-,N/A,,Clear,0,2014-01-21 02:53:00
7:53 PM,68.0,18.0,15,30.11,10.0,WNW,6.9,-,N/A,,Clear,300,2014-01-21 03:53:00
8:53 PM,64.0,18.0,17,30.13,10.0,NNW,5.8,-,N/A,,Clear,340,2014-01-21 04:53:00
9:53 PM,63.0,17.1,17,30.14,10.0,Calm,Calm,-,N/A,,Clear,0,2014-01-21 05:53:00
10:53 PM,59.0,19.9,22,30.15,10.0,Calm,Calm,-,N/A,,Clear,0,2014-01-21 06:53:00
11:53 PM,59.0,19.0,21,30.15,10.0,Calm,Calm,-,N/A,,Clear,0,2014-01-21 07:53:00